Tracking 19638 objects as of 20-May-2019
HD Live streaming from Space Station
objects crossing your sky now

EKRAN 20

Track EKRAN 20 now!
EKRAN 20 is classified as:


NORAD ID: 22210
Int'l Code: 1992-074A
Perigee: 35,788.1 km
Apogee: 35,818.1 km
Inclination: 14.9 °
Period: 1,436.6 minutes
Semi major axis: 42174 km
RCS: 6.3095 m2 (large)
Launch date: October 30, 1992
Source: Commonwealth of Independent States (former USSR) (CIS)
Launch site: TYURATAM MISSILE AND SPACE COMPLEX (TTMTR)
aabbcc
Your satellite tracking list
Your tracking list is empty




NASA's NSSDC Master Catalog

Two Line Element Set (TLE):
1 22210U 92074A   19139.17267028  .00000039  00000-0  00000+0 0  9996
2 22210  14.9456   5.4134 0003553  59.8308 289.5147  1.00238502 97243
Source of the keplerian elements: AFSPC